Big Bear Station Historical Data
Daily Summary for June 6, 2017 Units:  English    Metric   Both
Next Day »
Daily Weekly Monthly Yearly Custom
  High: Low: Average:
Temperature: 80.6 °F 45.7 °F 63.4 °F
Dew Point: 47.9 °F 32.6 °F 40 °F
Humidity: 76% 27% 45%
Wind Speed: 7.8mph 0.0mph 2.2mph
Wind Gust: -999.0mph - -
Wind- - WSW
Pressure: 30.20 in 30.16 in -
Precipitation: 0.00 in    
Historical Graphs
 
 
Tabular Data for June 6, 2017
Time Temperature Dew Point Pressure Wind Wind Speed Wind Gust Humidity Rainfall Rate (Hourly)
00:11 52.2 °F 37.0 °F 30.18 in Calm   -999.0 mph 56% 0 in
00:27 52.0 °F 38.5 °F 30.18 in Calm   -999.0 mph 60% 0 in
00:42 51.6 °F 37.3 °F 30.18 in Calm   -999.0 mph 58% 0 in
01:12 50.9 °F 38.8 °F 30.17 in Calm   -999.0 mph 63% 0 in
01:28 50.9 °F 39.6 °F 30.17 in Calm   -999.0 mph 65% 0 in
01:43 50.2 °F 37.3 °F 30.17 in Calm   -999.0 mph 61% 0 in
01:58 49.8 °F 39.7 °F 30.17 in Calm   -999.0 mph 68% 0 in
02:13 49.6 °F 40.9 °F 30.17 in Calm   -999.0 mph 72% 0 in
02:28 49.1 °F 37.0 °F 30.17 in Calm   -999.0 mph 63% 0 in
02:44 49.1 °F 34.5 °F 30.17 in Calm   -999.0 mph 57% 0 in
02:59 49.1 °F 35.0 °F 30.16 in Calm   -999.0 mph 58% 0 in
03:14 48.7 °F 38.2 °F 30.16 in Calm   -999.0 mph 67% 0 in
03:29 48.6 °F 38.9 °F 30.16 in Calm   -999.0 mph 69% 0 in
03:44 48.2 °F 40.0 °F 30.16 in Calm   -999.0 mph 73% 0 in
04:00 48.0 °F 39.8 °F 30.17 in Calm   -999.0 mph 73% 0 in
04:15 47.3 °F 40.1 °F 30.17 in Calm   -999.0 mph 76% 0 in
04:30 47.3 °F 37.3 °F 30.17 in Calm   -999.0 mph 68% 0 in
04:45 46.6 °F 33.0 °F 30.17 in Calm   -999.0 mph 59% 0 in
05:00 46.6 °F 32.6 °F 30.17 in Calm   -999.0 mph 58% 0 in
05:16 46.2 °F 33.1 °F 30.17 in Calm   -999.0 mph 60% 0 in
05:31 45.9 °F 33.6 °F 30.18 in Calm   -999.0 mph 62% 0 in
05:46 45.7 °F 33.8 °F 30.18 in Calm   -999.0 mph 63% 0 in
06:01 46.0 °F 34.9 °F 30.18 in Calm   -999.0 mph 65% 0 in
06:17 46.2 °F 37.0 °F 30.19 in Calm   -999.0 mph 70% 0 in
06:32 46.8 °F 38.2 °F 30.19 in Calm   -999.0 mph 72% 0 in
06:47 47.1 °F 37.5 °F 30.19 in Calm   -999.0 mph 69% 0 in
07:02 47.7 °F 38.8 °F 30.19 in Calm   -999.0 mph 71% 0 in
07:18 48.4 °F 40.1 °F 30.19 in Calm   -999.0 mph 73% 0 in
07:33 49.5 °F 40.1 °F 30.19 in Calm   -999.0 mph 70% 0 in
07:48 51.1 °F 42.0 °F 30.19 in Calm   -999.0 mph 71% 0 in
08:03 53.6 °F 43.3 °F 30.19 in Calm   -999.0 mph 68% 0 in
08:18 55.2 °F 43.6 °F 30.19 in Calm   -999.0 mph 65% 0 in
08:34 60.6 °F 36.8 °F 30.19 in SE 2.2 mph -999.0 mph 41% 0 in
08:49 62.1 °F 36.2 °F 30.20 in SSW 1.7 mph -999.0 mph 38% 0 in
09:05 66.0 °F 35.3 °F 30.20 in SSW 1.1 mph -999.0 mph 32% 0 in
09:20 67.8 °F 35.2 °F 30.20 in SSW 2.2 mph -999.0 mph 30% 0 in
09:35 69.1 °F 38.0 °F 30.19 in SE 2.2 mph -999.0 mph 32% 0 in
09:50 70.7 °F 38.6 °F 30.20 in NW 4.2 mph -999.0 mph 31% 0 in
10:06 71.2 °F 40.6 °F 30.19 in NNW 4.2 mph -999.0 mph 33% 0 in
10:21 71.2 °F 40.6 °F 30.19 in SSE 3.7 mph -999.0 mph 33% 0 in
10:36 71.4 °F 40.8 °F 30.19 in NNW 5.8 mph -999.0 mph 33% 0 in
10:51 72.5 °F 41.8 °F 30.19 in Calm   -999.0 mph 33% 0 in
11:06 73.2 °F 40.8 °F 30.20 in NW 7.8 mph -999.0 mph 31% 0 in
11:22 74.5 °F 42.7 °F 30.20 in NW 4.2 mph -999.0 mph 32% 0 in
11:37 75.9 °F 43.9 °F 30.20 in NW 5.8 mph -999.0 mph 32% 0 in
11:53 76.1 °F 44.9 °F 30.20 in NNW 4.2 mph -999.0 mph 33% 0 in
12:08 77.0 °F 44.1 °F 30.20 in NNW 6.3 mph -999.0 mph 31% 0 in
12:24 78.3 °F 46.0 °F 30.20 in NW 5.8 mph -999.0 mph 32% 0 in
12:39 79.0 °F 45.8 °F 30.20 in NW 5.8 mph -999.0 mph 31% 0 in
12:54 79.3 °F 46.9 °F 30.20 in West 4.2 mph -999.0 mph 32% 0 in
13:10 79.5 °F 47.9 °F 30.20 in NW 5.8 mph -999.0 mph 33% 0 in
13:25 79.9 °F 45.7 °F 30.19 in NNW 4.7 mph -999.0 mph 30% 0 in
13:41 80.1 °F 46.7 °F 30.19 in NW 4.7 mph -999.0 mph 31% 0 in
13:56 80.6 °F 47.2 °F 30.19 in NW 4.2 mph -999.0 mph 31% 0 in
14:11 79.7 °F 47.2 °F 30.19 in NNW 4.7 mph -999.0 mph 32% 0 in
14:26 80.4 °F 45.2 °F 30.19 in NNW 5.8 mph -999.0 mph 29% 0 in
14:42 79.7 °F 43.7 °F 30.19 in SW 3.7 mph -999.0 mph 28% 0 in
14:57 79.7 °F 43.7 °F 30.18 in ENE 5.3 mph -999.0 mph 28% 0 in
15:12 80.6 °F 45.4 °F 30.18 in NNW 3.7 mph -999.0 mph 29% 0 in
15:28 79.5 °F 43.5 °F 30.18 in North 5.3 mph -999.0 mph 28% 0 in
15:43 79.9 °F 43.9 °F 30.17 in NNW 2.7 mph -999.0 mph 28% 0 in
15:58 79.7 °F 42.8 °F 30.17 in NNW 3.2 mph -999.0 mph 27% 0 in
16:13 78.8 °F 42.9 °F 30.17 in NE 7.8 mph -999.0 mph 28% 0 in
16:29 79.2 °F 42.3 °F 30.17 in WSW 2.7 mph -999.0 mph 27% 0 in
16:44 80.1 °F 43.1 °F 30.16 in NW 5.8 mph -999.0 mph 27% 0 in
17:00 78.6 °F 42.8 °F 30.16 in NW 6.8 mph -999.0 mph 28% 0 in
17:15 78.1 °F 42.3 °F 30.16 in WNW 5.8 mph -999.0 mph 28% 0 in
17:31 77.0 °F 41.4 °F 30.16 in NNE 5.3 mph -999.0 mph 28% 0 in
17:46 77.5 °F 42.7 °F 30.16 in NNW 5.3 mph -999.0 mph 29% 0 in
18:01 77.4 °F 42.7 °F 30.16 in WNW 4.2 mph -999.0 mph 29% 0 in
18:16 76.3 °F 41.7 °F 30.16 in ESE 6.3 mph -999.0 mph 29% 0 in
18:31 74.8 °F 41.3 °F 30.16 in NW 5.3 mph -999.0 mph 30% 0 in
18:47 74.1 °F 39.8 °F 30.16 in NW 4.2 mph -999.0 mph 29% 0 in
19:02 72.7 °F 40.3 °F 30.16 in West 4.7 mph -999.0 mph 31% 0 in
19:17 71.4 °F 40.8 °F 30.16 in West 2.2 mph -999.0 mph 33% 0 in
19:32 69.1 °F 41.0 °F 30.17 in WNW 2.7 mph -999.0 mph 36% 0 in
19:47 67.5 °F 41.0 °F 30.17 in Calm   -999.0 mph 38% 0 in
20:03 65.5 °F 39.9 °F 30.17 in SSW 2.7 mph -999.0 mph 39% 0 in
20:18 64.6 °F 39.7 °F 30.17 in South 1.7 mph -999.0 mph 40% 0 in
20:33 63.3 °F 39.8 °F 30.17 in Calm   -999.0 mph 42% 0 in
20:48 62.4 °F 37.8 °F 30.17 in South 1.1 mph -999.0 mph 40% 0 in
21:04 61.9 °F 36.7 °F 30.17 in Calm   -999.0 mph 39% 0 in
21:19 61.2 °F 36.0 °F 30.17 in Calm   -999.0 mph 39% 0 in
21:34 60.4 °F 36.6 °F 30.18 in Calm   -999.0 mph 41% 0 in
21:49 59.9 °F 36.1 °F 30.18 in Calm   -999.0 mph 41% 0 in
22:04 59.2 °F 36.1 °F 30.18 in Calm   -999.0 mph 42% 0 in
22:20 58.1 °F 36.3 °F 30.18 in Calm   -999.0 mph 44% 0 in
22:35 57.4 °F 37.3 °F 30.18 in ESE 2.2 mph -999.0 mph 47% 0 in
22:50 55.9 °F 37.0 °F 30.18 in SSE 1.7 mph -999.0 mph 49% 0 in
23:05 55.4 °F 36.6 °F 30.18 in Calm   -999.0 mph 49% 0 in
23:20 54.9 °F 37.1 °F 30.18 in Calm   -999.0 mph 51% 0 in
23:36 54.3 °F 37.5 °F 30.18 in Calm   -999.0 mph 53% 0 in
23:51 53.4 °F 37.2 °F 30.18 in SSE 1.7 mph -999.0 mph 54% 0 in
Big Bear CA Weather